Starlink 11322

operational
NORAD ID: 61542 Int'l Des: 2024-184 Owner: SPXS Country: US Constellation: starlink
LEOCIRCULAR

About Starlink 11322

Description loading...

Live Position

Loading 3D Globe...

Upcoming Passes

Altitude History

Altitude vs Time

uPlot chart will show altitude changes over time

Two-Line Element Set

1 61542U 24184L 25306.28610264 .00007853 00000-0 69697-4 0 9996
2 61542 53.1597 144.5742 0000898 84.4053 275.7067 15.69681475 61469
Epoch: Nov 2, 2025 • Age: 40 hours

Current Status

Altitude 364.0 km
Velocity 7.70 km/s
Sub-Earth Point 45.63°N, 123.15°W
Launch Date Oct 15, 2024
Age 1 years
Type internet

Technical Details

Classification Payload
Mass 960.00 kg
Dry Mass 910.00 kg
Total Mass 960.00 kg
Length 0.30 m
Diameter 4.10 m
Span 29.00 m
Shape Box + pan
Manufacturer SPXS
Bus Type Starlink V2MD
Phase Status In Orbit
Owner/State SPXS/US

Large Constellations

Loading constellations...